Location: Juzet
(42.9779°N, 0.7597°E)
Time: 07:19:41
(UTC+00:00)

Cosmos 2322 Rocket - Pass Details

Date: 14 July 2020
Orbit: 832 x 851 km, 71.0° (Epoch: 04 August)

Event Time Altitude Azimuth Distance (km) Brightness Sun altitude
Rises 02:44:31 0° 343° (NNW) 3,405 5.9 -15.5°
Reaches altitude 10° 02:47:21 10° 356° (N) 2,470 5.3 -15.1°
Maximum altitude 02:52:07 27° 53° (NE) 1,574 4.5 -14.6°
Drops below altitude 10° 02:56:52 10° 110° (ESE) 2,469 4.9 -14.0°
Sets 02:59:42 0° 123° (ESE) 3,403 5.5 -13.7°
